sat.trackr.live / text

‹ back to catalog

STARLINK-35722

NORAD 66218 · 2025-244N

PAYLOAD ACTIVE UNKNOWN

§ Identity

Operator
Country
US
Launch date
2025-10-28
Launch site
AFWTR
Launch vehicle
Mass (kg)
RCS (m²)

Purposes: comms

External: N2YO · Heavens-Above · Gunter

§ Orbital elements

Epoch: 2026-09-20T19:24:09.694656Z

Period
93.85 min
Inclination
53.1584°
Eccentricity
0.0000959
Mean motion
15.34382739 rev/d
Perigee alt
462.1 km
Apogee alt
463.4 km
Semi-major
6,840.9 km
B*
5.5620e-4
RAAN
40.0207°
Arg perigee
107.2728°
Mean anomaly
252.8380°
Rev number
5,158

§ Raw data

STARLINK-357221 66218U 25244N   26263.80844554  .00018452  00000+0  55620-3 0  99972 66218  53.1584  40.0207 0000959 107.2728 252.8380 15.34382739 51586

JSON: /api/v1/satellites/66218 · /tle

For live sub-satellite position, see the globe view (requires WebGL).

§ Visibility from observer

Set your observer location to see the next 7 days of passes ≥ 10°. The values pass through the URL so the page stays shareable.

No JS? Fill the form by hand. The geolocation button needs JavaScript.